FW9535 Weather Reports


Display with metric or nautical units.
time (UTC)temp
F
wind
direction
speed
MPH
gust
MPH
rain 1hr
in
rain 24hr
in
rain mn
in
humidity
%
barometer
mb
20260505050207 72 295 1.0 1.0 0.00 0.00 0.00 54 1015.4
20260505041654 80 260 1.0 2.0 0.00 0.00 0.00 40 1015.4
20260505040151 78 329 1.0 1.0 0.00 0.00 0.00 43 1015.3
20260505034646 77 291 2.0 2.0 0.00 0.00 0.00 42 1015.4
20260505033144 76 299 2.0 2.0 0.00 0.00 0.00 46 1015.4
20260505031641 76 259 1.0 2.0 0.00 0.00 0.00 46 1015.3
20260505030136 76 299 1.0 2.0 0.00 0.00 0.00 47 1015.5
20260505024633 76 195 3.0 3.0 0.00 0.00 0.00 46 1015.7
20260505023130 75 201 3.0 5.0 0.00 0.00 0.00 47 1015.5
20260505021627 74 197 4.0 5.0 0.00 0.00 0.00 48 1016.2
20260505020122 74 232 4.0 6.0 0.00 0.00 0.00 49 1015.9
20260505014618 74 184 5.0 6.0 0.00 0.00 0.00 50 1016.2
20260505013116 73 203 2.0 2.0 0.00 0.00 0.00 52 1016.5
20260505011612 72 230 3.0 7.0 0.00 0.00 0.00 51 1016.6
20260505010107 72 337 2.0 3.0 0.00 0.00 0.00 53 1016.7
20260505004603 71 250 4.0 6.0 0.00 0.00 0.00 55 1016.6
20260505003101 70 209 3.0 5.0 0.00 0.00 0.00 57 1016.7
20260505001557 69 271 5.0 7.0 0.00 0.00 0.00 57 1016.3
20260505000055 68 192 4.0 5.0 0.00 0.00 0.00 59 1016.8
20260504234551 68 272 2.0 5.0 0.00 0.00 0.00 59 1016.6
20260504233046 68 206 1.0 2.0 0.00 0.00 0.00 59 1016.7
20260504231543 67 326 3.0 3.0 0.00 0.00 0.00 63 1016.7
20260504230040 66 285 4.0 5.0 0.00 0.00 0.00 64 1016.9
20260504224536 64 307 1.0 1.0 0.00 0.00 0.00 67 1016.9
20260504223032 63 272 3.0 3.0 0.00 0.00 0.00 67 1016.9
20260504221530 63 201 4.0 5.0 0.00 0.00 0.00 68 1016.3
20260504220026 63 192 2.0 2.0 0.00 0.00 0.00 68 1016.1
20260504214521 62 220 5.0 7.0 0.00 0.00 0.00 68 1016.1
20260504213018 61 250 2.0 2.0 0.00 0.00 0.00 69 1016.1
20260504211513 60 300 2.0 3.0 0.00 0.00 0.00 70 1015.7
20260504210010 60 245 2.0 3.0 0.00 0.00 0.00 71 1015.5
20260504204509 59 182 3.0 5.0 0.00 0.00 0.00 72 1014.4
20260504203008 60 320 5.0 6.0 0.00 0.00 0.00 70 1014.3
20260504201504 59 251 5.0 6.0 0.00 0.00 0.00 72 1014.3
20260504200000 58 241 5.0 7.0 0.00 0.00 0.00 73 1014.5
20260504194455 58 220 4.0 7.0 0.00 0.00 0.00 74 1014.5
20260504192953 57 202 3.0 3.0 0.00 0.00 0.00 75 1014.5
20260504191452 56 202 1.0 1.0 0.00 0.00 0.00 78 1014.6
20260504185951 55 194 2.0 2.0 0.00 0.00 0.00 81 1014.7
20260504184446 54 195 0.0 0.0 0.00 0.00 0.00 83 1014.7
20260504182944 55 192 0.0 0.0 0.00 0.00 0.00 81 1014.5
20260504181440 56 192 1.0 1.0 0.00 0.00 0.00 80 1014.4
20260504175935 55 274 0.0 0.0 0.00 0.00 0.00 81 1014.6
20260504174433 56 290 0.0 0.0 0.00 0.00 0.00 81 1014.3
20260504172930 56 269 1.0 1.0 0.00 0.00 0.00 81 1014.7
20260504171425 56 199 3.0 3.0 0.00 0.00 0.00 83 1014.6
20260504081227 66 305 0.0 1.0 0.00 0.11 0.11 87 1012.3